Location: Catstown
(52.4386°N, 7.2633°W)
Time: 12:59:59
(UTC+00:00)

Cosmos 1891 Rocket - Pass Details

Date: 18 September 2020
Orbit: 934 x 1018 km, 82.9° (Epoch: 25 October)

Event Time Altitude Azimuth Distance (km) Brightness Sun altitude
Rises 20:11:01 0° 189° (S) 3,641 7.4 -14.9°
Reaches altitude 10° 20:13:31 10° 190° (S) 2,687 6.7 -15.2°
Maximum altitude 20:19:40 86° 280° (W) 956 4.5 -16.1°
Drops below altitude 10° 20:25:46 10° 10° (N) 2,664 7.0 -16.9°
Sets 20:28:14 0° 11° (N) 3,608 7.7 -17.3°
